Time,TemperatureF,DewpointF,PressureIn,WindDirection,WindDirectionDegrees,WindSpeedMPH,WindSpeedGustMPH,Humidity,HourlyPrecipIn,Conditions,Clouds,dailyrainin,SoftwareType,DateUTC
2013-01-10 00:00:00,35.0,28.2,30.26,SSW,213,0.0,0.0,76,0.00,,,0.00,WeatherCatV1.11B39,2013-01-10 06:00:00,
2013-01-10 00:05:00,35.0,28.2,30.26,SSW,213,0.0,0.0,76,0.00,,,0.00,WeatherCatV1.11B39,2013-01-10 06:05:00,
2013-01-10 00:10:00,35.0,28.2,30.26,SSW,213,0.0,0.0,76,0.00,,,0.00,WeatherCatV1.11B39,2013-01-10 06:10:00,
2013-01-10 00:15:00,34.9,27.8,30.24,SSW,213,0.0,0.0,75,0.00,,,0.00,WeatherCatV1.11B39,2013-01-10 06:15:00,
2013-01-10 00:20:00,34.7,27.6,30.24,SSW,213,0.0,0.0,75,0.00,,,0.00,WeatherCatV1.11B39,2013-01-10 06:20:00,
2013-01-10 00:25:00,34.6,27.8,30.24,SSW,213,0.0,1.0,76,0.00,,,0.00,WeatherCatV1.11B39,2013-01-10 06:25:00,
2013-01-10 00:30:00,34.4,27.6,30.24,SSW,213,0.0,0.0,76,0.00,,,0.00,WeatherCatV1.11B39,2013-01-10 06:30:00,
2013-01-10 00:35:00,34.1,27.3,30.24,SSW,213,0.0,0.0,76,0.00,,,0.00,WeatherCatV1.11B39,2013-01-10 06:35:00,
2013-01-10 00:40:00,33.8,27.1,30.24,SSW,213,0.0,0.0,76,0.00,,,0.00,WeatherCatV1.11B39,2013-01-10 06:40:00,
2013-01-10 00:45:00,33.5,27.1,30.24,SSW,213,0.0,0.0,77,0.00,,,0.00,WeatherCatV1.11B39,2013-01-10 06:45:00,
2013-01-10 00:50:00,33.5,27.4,30.24,SSW,213,0.0,0.0,78,0.00,,,0.00,WeatherCatV1.11B39,2013-01-10 06:50:00,
2013-01-10 00:55:00,33.5,27.4,30.24,SSW,213,0.0,0.0,78,0.00,,,0.00,WeatherCatV1.11B39,2013-01-10 06:55:00,
2013-01-10 01:00:00,33.4,27.3,30.23,SSW,213,0.0,0.0,78,0.00,,,0.00,WeatherCatV1.11B39,2013-01-10 07:00:00,
2013-01-10 01:05:00,33.4,27.3,30.23,SSW,213,0.0,0.0,78,0.00,,,0.00,WeatherCatV1.11B39,2013-01-10 07:05:00,
2013-01-10 01:10:00,33.4,27.3,30.23,SSW,213,0.0,0.0,78,0.00,,,0.00,WeatherCatV1.11B39,2013-01-10 07:10:00,
2013-01-10 01:15:00,33.4,27.3,30.24,SSW,213,0.0,0.0,78,0.00,,,0.00,WeatherCatV1.11B39,2013-01-10 07:15:00,
2013-01-10 01:20:00,33.4,27.0,30.24,SSW,213,0.0,0.0,77,0.00,,,0.00,WeatherCatV1.11B39,2013-01-10 07:20:00,
2013-01-10 01:25:00,33.2,26.8,30.24,SSW,213,0.0,0.0,77,0.00,,,0.00,WeatherCatV1.11B39,2013-01-10 07:25:00,
2013-01-10 01:30:00,33.1,27.0,30.22,SSW,213,0.0,0.0,78,0.00,,,0.00,WeatherCatV1.11B39,2013-01-10 07:30:00,
2013-01-10 01:35:00,33.1,27.0,30.22,SSW,213,0.0,0.0,78,0.00,,,0.00,WeatherCatV1.11B39,2013-01-10 07:35:00,
2013-01-10 01:40:00,32.9,26.8,30.22,SSW,213,0.0,0.0,78,0.00,,,0.00,WeatherCatV1.11B39,2013-01-10 07:40:00,
2013-01-10 01:45:00,32.8,26.7,30.22,SSW,213,0.0,0.0,78,0.00,,,0.00,WeatherCatV1.11B39,2013-01-10 07:45:00,
2013-01-10 01:50:00,32.7,26.6,30.22,SSW,213,0.0,0.0,78,0.00,,,0.00,WeatherCatV1.11B39,2013-01-10 07:50:00,
2013-01-10 01:55:00,32.4,26.3,30.22,SSW,213,0.0,0.0,78,0.00,,,0.00,WeatherCatV1.11B39,2013-01-10 07:55:00,
2013-01-10 02:00:00,32.1,26.0,30.22,SSW,213,0.0,0.0,78,0.00,,,0.00,WeatherCatV1.11B39,2013-01-10 08:00:00,
2013-01-10 02:05:00,31.8,26.0,30.22,SSW,213,0.0,0.0,79,0.00,,,0.00,WeatherCatV1.11B39,2013-01-10 08:05:00,
2013-01-10 02:10:00,31.6,26.2,30.22,SSW,213,0.0,0.0,80,0.00,,,0.00,WeatherCatV1.11B39,2013-01-10 08:10:00,
2013-01-10 02:15:00,31.5,26.1,30.21,SSW,213,0.0,0.0,80,0.00,,,0.00,WeatherCatV1.11B39,2013-01-10 08:15:00,
2013-01-10 02:20:00,31.3,25.9,30.21,SSW,213,0.0,0.0,80,0.00,,,0.00,WeatherCatV1.11B39,2013-01-10 08:20:00,
2013-01-10 02:25:00,31.2,26.1,30.21,SSW,213,0.0,0.0,81,0.00,,,0.00,WeatherCatV1.11B39,2013-01-10 08:25:00,
2013-01-10 02:30:00,31.2,26.1,30.21,SSW,213,0.0,0.0,81,0.00,,,0.00,WeatherCatV1.11B39,2013-01-10 08:30:00,
2013-01-10 02:35:00,31.0,25.9,30.21,SSW,213,0.0,0.0,81,0.00,,,0.00,WeatherCatV1.11B39,2013-01-10 08:35:00,
2013-01-10 02:40:00,31.0,26.2,30.21,SSW,213,0.0,0.0,82,0.00,,,0.00,WeatherCatV1.11B39,2013-01-10 08:40:00,
2013-01-10 02:45:00,31.0,26.2,30.20,SSW,213,0.0,0.0,82,0.00,,,0.00,WeatherCatV1.11B39,2013-01-10 08:45:00,
2013-01-10 02:50:00,31.0,26.2,30.20,SSW,213,0.0,0.0,82,0.00,,,0.00,WeatherCatV1.11B39,2013-01-10 08:50:00,
2013-01-10 02:55:00,31.0,26.2,30.20,SSW,213,0.0,1.0,82,0.00,,,0.00,WeatherCatV1.11B39,2013-01-10 08:55:00,
2013-01-10 03:00:00,31.0,26.2,30.19,SSW,213,0.0,0.0,82,0.00,,,0.00,WeatherCatV1.11B39,2013-01-10 09:00:00,
2013-01-10 03:05:00,31.0,26.2,30.19,SSW,213,0.0,0.0,82,0.00,,,0.00,WeatherCatV1.11B39,2013-01-10 09:05:00,
2013-01-10 03:10:00,31.2,26.4,30.19,SSW,213,0.0,1.0,82,0.00,,,0.00,WeatherCatV1.11B39,2013-01-10 09:10:00,
2013-01-10 03:15:00,31.3,26.5,30.20,SSW,213,0.0,0.0,82,0.00,,,0.00,WeatherCatV1.11B39,2013-01-10 09:15:00,
2013-01-10 03:20:00,31.3,26.5,30.20,SSW,213,0.0,1.0,82,0.00,,,0.00,WeatherCatV1.11B39,2013-01-10 09:20:00,
2013-01-10 03:25:00,31.5,26.7,30.20,SSW,213,0.0,0.0,82,0.00,,,0.00,WeatherCatV1.11B39,2013-01-10 09:25:00,
2013-01-10 03:30:00,31.5,26.7,30.19,SSW,213,0.0,1.0,82,0.00,,,0.00,WeatherCatV1.11B39,2013-01-10 09:30:00,
2013-01-10 03:35:00,31.5,26.7,30.19,SSW,213,0.0,0.0,82,0.00,,,0.00,WeatherCatV1.11B39,2013-01-10 09:35:00,
2013-01-10 03:40:00,31.5,26.7,30.19,SSW,213,0.0,0.0,82,0.00,,,0.00,WeatherCatV1.11B39,2013-01-10 09:40:00,
2013-01-10 03:45:00,31.5,26.7,30.19,SSW,213,0.0,0.0,82,0.00,,,0.00,WeatherCatV1.11B39,2013-01-10 09:45:00,
2013-01-10 03:50:00,31.5,26.9,30.19,SSW,213,0.0,0.0,83,0.00,,,0.00,WeatherCatV1.11B39,2013-01-10 09:50:00,
2013-01-10 03:55:00,31.5,26.9,30.19,SSW,213,0.0,0.0,83,0.00,,,0.00,WeatherCatV1.11B39,2013-01-10 09:55:00,
2013-01-10 04:00:00,31.6,27.0,30.18,SSW,213,0.0,0.0,83,0.00,,,0.00,WeatherCatV1.11B39,2013-01-10 10:00:00,
2013-01-10 04:05:00,31.6,27.0,30.18,SSW,213,0.0,0.0,83,0.00,,,0.00,WeatherCatV1.11B39,2013-01-10 10:05:00,
2013-01-10 04:10:00,31.8,27.2,30.18,SSW,213,0.0,0.0,83,0.00,,,0.00,WeatherCatV1.11B39,2013-01-10 10:10:00,
2013-01-10 04:15:00,31.9,27.3,30.18,SSW,213,0.0,0.0,83,0.00,,,0.00,WeatherCatV1.11B39,2013-01-10 10:15:00,
2013-01-10 04:20:00,32.1,27.2,30.18,SSW,213,0.0,1.0,82,0.00,,,0.00,WeatherCatV1.11B39,2013-01-10 10:20:00,
2013-01-10 04:25:00,32.2,27.3,30.18,SSW,213,0.0,1.0,82,0.00,,,0.00,WeatherCatV1.11B39,2013-01-10 10:25:00,
2013-01-10 04:30:00,32.2,27.3,30.17,SSW,213,0.0,1.0,82,0.00,,,0.00,WeatherCatV1.11B39,2013-01-10 10:30:00,
2013-01-10 04:35:00,32.4,27.2,30.17,SSW,213,0.0,2.0,81,0.00,,,0.00,WeatherCatV1.11B39,2013-01-10 10:35:00,
2013-01-10 04:40:00,32.4,26.9,30.17,SSW,212,1.0,2.0,80,0.00,,,0.00,WeatherCatV1.11B39,2013-01-10 10:40:00,
2013-01-10 04:45:00,32.5,26.7,30.16,ESE,119,0.0,3.0,79,0.00,,,0.00,WeatherCatV1.11B39,2013-01-10 10:45:00,
2013-01-10 04:50:00,32.7,26.6,30.16,ESE,119,1.0,2.0,78,0.00,,,0.00,WeatherCatV1.11B39,2013-01-10 10:50:00,
2013-01-10 04:55:00,32.8,26.7,30.16,ESE,119,0.0,2.0,78,0.00,,,0.00,WeatherCatV1.11B39,2013-01-10 10:55:00,
2013-01-10 05:00:00,32.8,26.4,30.15,ESE,119,0.0,3.0,77,0.00,,,0.00,WeatherCatV1.11B39,2013-01-10 11:00:00,
2013-01-10 05:05:00,32.8,26.4,30.15,ESE,119,2.0,2.0,77,0.00,,,0.00,WeatherCatV1.11B39,2013-01-10 11:05:00,
2013-01-10 05:10:00,32.8,26.4,30.15,ESE,119,0.0,1.0,77,0.00,,,0.00,WeatherCatV1.11B39,2013-01-10 11:10:00,
2013-01-10 05:15:00,32.8,26.4,30.14,ESE,119,0.0,1.0,77,0.00,,,0.00,WeatherCatV1.11B39,2013-01-10 11:15:00,
2013-01-10 05:20:00,32.8,26.1,30.14,ESE,119,0.0,1.0,76,0.00,,,0.00,WeatherCatV1.11B39,2013-01-10 11:20:00,
2013-01-10 05:25:00,32.7,26.0,30.14,ESE,119,0.0,1.0,76,0.00,,,0.00,WeatherCatV1.11B39,2013-01-10 11:25:00,
2013-01-10 05:30:00,32.7,26.0,30.14,ESE,119,0.0,0.0,76,0.00,,,0.00,WeatherCatV1.11B39,2013-01-10 11:30:00,
2013-01-10 05:35:00,32.5,25.8,30.14,ESE,119,0.0,0.0,76,0.00,,,0.00,WeatherCatV1.11B39,2013-01-10 11:35:00,
2013-01-10 05:40:00,32.5,25.8,30.14,ESE,119,0.0,1.0,76,0.00,,,0.00,WeatherCatV1.11B39,2013-01-10 11:40:00,
2013-01-10 05:45:00,32.5,25.5,30.12,ESE,119,1.0,3.0,75,0.00,,,0.00,WeatherCatV1.11B39,2013-01-10 11:45:00,
2013-01-10 05:50:00,32.5,25.5,30.12,ESE,119,0.0,0.0,75,0.00,,,0.00,WeatherCatV1.11B39,2013-01-10 11:50:00,
2013-01-10 05:55:00,32.5,25.5,30.12,ESE,119,0.0,0.0,75,0.00,,,0.00,WeatherCatV1.11B39,2013-01-10 11:55:00,
2013-01-10 06:00:00,32.7,25.3,30.12,ESE,119,1.0,1.0,74,0.00,,,0.00,WeatherCatV1.11B39,2013-01-10 12:00:00,
2013-01-10 06:05:00,32.9,25.5,30.12,ESE,119,0.0,1.0,74,0.00,,,0.00,WeatherCatV1.11B39,2013-01-10 12:05:00,
2013-01-10 06:10:00,32.9,25.2,30.12,ESE,119,0.0,0.0,73,0.00,,,0.00,WeatherCatV1.11B39,2013-01-10 12:10:00,
2013-01-10 06:15:00,32.8,24.8,30.12,ESE,119,0.0,0.0,72,0.00,,,0.00,WeatherCatV1.11B39,2013-01-10 12:15:00,
2013-01-10 06:20:00,32.7,24.7,30.12,ESE,119,0.0,0.0,72,0.00,,,0.00,WeatherCatV1.11B39,2013-01-10 12:20:00,
2013-01-10 06:25:00,32.7,24.7,30.12,ESE,119,0.0,1.0,72,0.00,,,0.00,WeatherCatV1.11B39,2013-01-10 12:25:00,
2013-01-10 06:30:00,32.9,24.9,30.11,ESE,119,0.0,1.0,72,0.00,,,0.00,WeatherCatV1.11B39,2013-01-10 12:30:00,
2013-01-10 06:35:00,33.2,24.8,30.11,ESE,119,2.0,2.0,71,0.00,,,0.00,WeatherCatV1.11B39,2013-01-10 12:35:00,
2013-01-10 06:40:00,33.7,25.0,30.11,ESE,119,1.0,2.0,70,0.00,,,0.00,WeatherCatV1.11B39,2013-01-10 12:40:00,
2013-01-10 06:45:00,34.1,25.0,30.09,ESE,119,1.0,2.0,69,0.00,,,0.00,WeatherCatV1.11B39,2013-01-10 12:45:00,
2013-01-10 06:50:00,34.3,24.9,30.09,ESE,119,0.0,2.0,68,0.00,,,0.00,WeatherCatV1.11B39,2013-01-10 12:50:00,
2013-01-10 06:55:00,34.3,24.5,30.09,ESE,119,0.0,2.0,67,0.00,,,0.00,WeatherCatV1.11B39,2013-01-10 12:55:00,
2013-01-10 07:00:00,34.1,24.3,30.08,ESE,119,0.0,0.0,67,0.00,,,0.00,WeatherCatV1.11B39,2013-01-10 13:00:00,
2013-01-10 07:05:00,34.1,24.3,30.08,ESE,119,0.0,0.0,67,0.00,,,0.00,WeatherCatV1.11B39,2013-01-10 13:05:00,
2013-01-10 07:10:00,34.0,24.2,30.08,ESE,119,0.0,2.0,67,0.00,,,0.00,WeatherCatV1.11B39,2013-01-10 13:10:00,
2013-01-10 07:15:00,34.1,24.3,30.08,ESE,119,1.0,2.0,67,0.00,,,0.00,WeatherCatV1.11B39,2013-01-10 13:15:00,
2013-01-10 07:20:00,34.1,24.3,30.08,ESE,119,2.0,2.0,67,0.00,,,0.00,WeatherCatV1.11B39,2013-01-10 13:20:00,
2013-01-10 07:25:00,34.3,24.1,30.08,ESE,119,2.0,3.0,66,0.00,,,0.00,WeatherCatV1.11B39,2013-01-10 13:25:00,
2013-01-10 07:30:00,34.4,23.9,30.07,ESE,120,2.0,3.0,65,0.00,,,0.00,WeatherCatV1.11B39,2013-01-10 13:30:00,
2013-01-10 07:35:00,34.6,24.1,30.07,ESE,121,1.0,4.0,65,0.00,,,0.00,WeatherCatV1.11B39,2013-01-10 13:35:00,
2013-01-10 07:40:00,34.7,23.8,30.07,ESE,122,0.0,4.0,64,0.00,,,0.00,WeatherCatV1.11B39,2013-01-10 13:40:00,
2013-01-10 07:45:00,34.9,24.0,30.07,ESE,122,2.0,3.0,64,0.00,,,0.00,WeatherCatV1.11B39,2013-01-10 13:45:00,
2013-01-10 07:50:00,34.9,24.0,30.07,ESE,122,3.0,4.0,64,0.00,,,0.00,WeatherCatV1.11B39,2013-01-10 13:50:00,
2013-01-10 07:55:00,34.9,24.0,30.07,ESE,122,1.0,4.0,64,0.00,,,0.00,WeatherCatV1.11B39,2013-01-10 13:55:00,
2013-01-10 08:00:00,34.9,24.0,30.07,ESE,122,0.0,2.0,64,0.00,,,0.00,WeatherCatV1.11B39,2013-01-10 14:00:00,
2013-01-10 08:05:00,34.9,24.0,30.07,ESE,122,1.0,3.0,64,0.00,,,0.00,WeatherCatV1.11B39,2013-01-10 14:05:00,
2013-01-10 08:10:00,35.2,23.5,30.07,ESE,122,0.0,3.0,62,0.00,,,0.00,WeatherCatV1.11B39,2013-01-10 14:10:00,
2013-01-10 08:15:00,35.3,23.6,30.07,ESE,122,1.0,2.0,62,0.00,,,0.00,WeatherCatV1.11B39,2013-01-10 14:15:00,
2013-01-10 08:20:00,35.6,23.9,30.07,ESE,122,2.0,3.0,62,0.00,,,0.00,WeatherCatV1.11B39,2013-01-10 14:20:00,
2013-01-10 08:25:00,35.8,24.1,30.07,SSE,167,1.0,7.0,62,0.00,,,0.00,WeatherCatV1.11B39,2013-01-10 14:25:00,
2013-01-10 08:30:00,35.9,23.8,30.07,SSE,147,2.0,4.0,61,0.00,,,0.00,WeatherCatV1.11B39,2013-01-10 14:30:00,
2013-01-10 08:35:00,36.2,24.1,30.07,SE,131,3.0,3.0,61,0.00,,,0.00,WeatherCatV1.11B39,2013-01-10 14:35:00,
2013-01-10 08:40:00,36.3,24.2,30.07,SE,132,1.0,2.0,61,0.00,,,0.00,WeatherCatV1.11B39,2013-01-10 14:40:00,
2013-01-10 08:45:00,36.5,24.3,30.06,SE,132,1.0,5.0,61,0.00,,,0.00,WeatherCatV1.11B39,2013-01-10 14:45:00,
2013-01-10 08:50:00,36.5,24.3,30.06,SE,132,2.0,4.0,61,0.00,,,0.00,WeatherCatV1.11B39,2013-01-10 14:50:00,
2013-01-10 08:55:00,36.6,24.4,30.06,ESE,121,3.0,3.0,61,0.00,,,0.00,WeatherCatV1.11B39,2013-01-10 14:55:00,
2013-01-10 09:00:00,36.8,24.6,30.04,SE,138,5.0,10.0,61,0.00,,,0.00,WeatherCatV1.11B39,2013-01-10 15:00:00,
2013-01-10 09:05:00,37.0,24.4,30.04,ESE,123,4.0,5.0,60,0.00,,,0.00,WeatherCatV1.11B39,2013-01-10 15:05:00,
2013-01-10 09:10:00,37.2,24.2,30.04,ESE,117,3.0,8.0,59,0.00,,,0.00,WeatherCatV1.11B39,2013-01-10 15:10:00,
2013-01-10 09:15:00,37.5,24.5,30.02,SE,130,3.0,4.0,59,0.00,,,0.00,WeatherCatV1.11B39,2013-01-10 15:15:00,
2013-01-10 09:20:00,37.8,24.4,30.02,SE,130,2.0,4.0,58,0.00,,,0.00,WeatherCatV1.11B39,2013-01-10 15:20:00,
2013-01-10 09:25:00,37.9,24.5,30.02,SE,130,3.0,7.0,58,0.00,,,0.00,WeatherCatV1.11B39,2013-01-10 15:25:00,
2013-01-10 09:30:00,38.2,24.3,30.01,ESE,114,6.0,6.0,57,0.00,,,0.00,WeatherCatV1.11B39,2013-01-10 15:30:00,
2013-01-10 09:35:00,38.5,24.2,30.01,ESE,109,2.0,7.0,56,0.00,,,0.00,WeatherCatV1.11B39,2013-01-10 15:35:00,
2013-01-10 09:40:00,38.8,24.0,30.01,ESE,113,3.0,5.0,55,0.00,,,0.00,WeatherCatV1.11B39,2013-01-10 15:40:00,
2013-01-10 09:45:00,38.9,23.7,30.00,ESE,115,3.0,6.0,54,0.00,,,0.00,WeatherCatV1.11B39,2013-01-10 15:45:00,
2013-01-10 09:50:00,39.1,23.9,30.00,SE,130,4.0,6.0,54,0.00,,,0.00,WeatherCatV1.11B39,2013-01-10 15:50:00,
2013-01-10 09:55:00,39.2,24.0,30.00,East,86,3.0,5.0,54,0.00,,,0.00,WeatherCatV1.11B39,2013-01-10 15:55:00,
2013-01-10 10:00:00,39.1,23.9,29.99,ESE,111,3.0,5.0,54,0.00,,,0.00,WeatherCatV1.11B39,2013-01-10 16:00:00,
2013-01-10 10:05:00,39.1,24.3,29.99,ESE,123,0.0,9.0,55,0.00,,,0.00,WeatherCatV1.11B39,2013-01-10 16:05:00,
2013-01-10 10:10:00,39.1,24.7,29.99,ESE,113,4.0,4.0,56,0.00,,,0.00,WeatherCatV1.11B39,2013-01-10 16:10:00,
2013-01-10 10:15:00,39.1,24.7,29.98,ESE,122,9.0,9.0,56,0.00,,,0.00,WeatherCatV1.11B39,2013-01-10 16:15:00,
2013-01-10 10:20:00,39.2,25.3,29.98,East,94,4.0,6.0,57,0.00,,,0.00,WeatherCatV1.11B39,2013-01-10 16:20:00,
2013-01-10 10:25:00,39.2,25.7,29.98,ESE,120,6.0,6.0,58,0.00,,,0.00,WeatherCatV1.11B39,2013-01-10 16:25:00,
2013-01-10 10:30:00,39.3,25.8,29.96,SE,126,4.0,7.0,58,0.00,,,0.00,WeatherCatV1.11B39,2013-01-10 16:30:00,
2013-01-10 10:35:00,39.3,25.8,29.96,SE,130,3.0,9.0,58,0.00,,,0.00,WeatherCatV1.11B39,2013-01-10 16:35:00,
2013-01-10 10:40:00,39.3,25.8,29.96,SE,136,4.0,10.0,58,0.00,,,0.00,WeatherCatV1.11B39,2013-01-10 16:40:00,
2013-01-10 10:45:00,39.3,26.2,29.96,SE,130,2.0,4.0,59,0.00,,,0.00,WeatherCatV1.11B39,2013-01-10 16:45:00,
2013-01-10 10:50:00,39.3,26.2,29.96,SE,136,2.0,6.0,59,0.00,,,0.00,WeatherCatV1.11B39,2013-01-10 16:50:00,
2013-01-10 10:55:00,39.2,26.5,29.96,SE,142,3.0,7.0,60,0.00,,,0.00,WeatherCatV1.11B39,2013-01-10 16:55:00,
2013-01-10 11:00:00,39.1,26.8,29.94,SE,127,3.0,5.0,61,0.00,,,0.00,WeatherCatV1.11B39,2013-01-10 17:00:00,
2013-01-10 11:05:00,39.1,26.8,29.94,SE,128,3.0,5.0,61,0.00,,,0.00,WeatherCatV1.11B39,2013-01-10 17:05:00,
2013-01-10 11:10:00,39.2,26.9,29.94,ESE,120,4.0,5.0,61,0.00,,,0.00,WeatherCatV1.11B39,2013-01-10 17:10:00,
2013-01-10 11:15:00,39.3,27.0,29.92,ESE,122,3.0,6.0,61,0.00,,,0.00,WeatherCatV1.11B39,2013-01-10 17:15:00,
2013-01-10 11:20:00,39.5,27.6,29.92,ESE,113,2.0,4.0,62,0.00,,,0.00,WeatherCatV1.11B39,2013-01-10 17:20:00,
2013-01-10 11:25:00,39.5,27.6,29.92,ESE,123,5.0,5.0,62,0.00,,,0.00,WeatherCatV1.11B39,2013-01-10 17:25:00,
2013-01-10 11:30:00,39.6,28.1,29.90,SE,132,2.0,5.0,63,0.00,,,0.00,WeatherCatV1.11B39,2013-01-10 17:30:00,
2013-01-10 11:35:00,39.6,28.4,29.90,SE,131,0.0,4.0,64,0.00,,,0.00,WeatherCatV1.11B39,2013-01-10 17:35:00,
2013-01-10 11:40:00,39.6,28.8,29.90,SE,131,1.0,5.0,65,0.00,,,0.00,WeatherCatV1.11B39,2013-01-10 17:40:00,
2013-01-10 11:45:00,39.5,28.7,29.88,SE,135,0.0,1.0,65,0.00,,,0.00,WeatherCatV1.11B39,2013-01-10 17:45:00,
2013-01-10 11:50:00,39.6,28.8,29.88,SE,129,0.0,5.0,65,0.00,,,0.00,WeatherCatV1.11B39,2013-01-10 17:50:00,
2013-01-10 11:55:00,39.6,28.8,29.88,SE,132,1.0,2.0,65,0.00,,,0.00,WeatherCatV1.11B39,2013-01-10 17:55:00,
2013-01-10 12:00:00,39.8,29.0,29.86,SE,138,0.0,4.0,65,0.00,,,0.00,WeatherCatV1.11B39,2013-01-10 18:00:00,
2013-01-10 12:05:00,39.8,29.4,29.86,SE,138,1.0,3.0,66,0.00,,,0.00,WeatherCatV1.11B39,2013-01-10 18:05:00,
2013-01-10 12:11:00,39.8,29.4,29.86,SE,138,3.0,4.0,66,0.00,,,0.00,WeatherCatV1.11B39,2013-01-10 18:11:00,
2013-01-10 12:16:00,39.6,29.6,29.87,SE,139,0.0,2.0,67,0.00,,,0.00,WeatherCatV1.11B39,2013-01-10 18:16:00,
2013-01-10 12:21:00,39.5,29.8,29.87,SE,138,0.0,2.0,68,0.00,,,0.00,WeatherCatV1.11B39,2013-01-10 18:21:00,
2013-01-10 12:26:00,39.5,29.8,29.87,SE,138,2.0,2.0,68,0.00,,,0.00,WeatherCatV1.11B39,2013-01-10 18:26:00,
2013-01-10 12:31:00,39.3,30.0,29.85,SSE,163,2.0,3.0,69,0.00,,,0.00,WeatherCatV1.11B39,2013-01-10 18:31:00,
2013-01-10 12:36:00,39.3,30.3,29.85,SSE,163,0.0,2.0,70,0.00,,,0.00,WeatherCatV1.11B39,2013-01-10 18:36:00,
2013-01-10 12:41:00,39.3,30.3,29.85,SSE,163,0.0,0.0,70,0.00,,,0.00,WeatherCatV1.11B39,2013-01-10 18:41:00,
2013-01-10 12:46:00,39.3,30.7,29.84,SSE,163,0.0,1.0,71,0.00,,,0.00,WeatherCatV1.11B39,2013-01-10 18:46:00,
2013-01-10 12:51:00,39.3,30.7,29.84,SSE,163,0.0,2.0,71,0.00,,,0.00,WeatherCatV1.11B39,2013-01-10 18:51:00,
2013-01-10 12:56:00,39.3,30.7,29.84,SSE,165,0.0,4.0,71,0.00,,,0.00,WeatherCatV1.11B39,2013-01-10 18:56:00,
2013-01-10 13:01:00,39.3,30.7,29.84,SSE,165,0.0,2.0,71,0.00,,,0.00,WeatherCatV1.11B39,2013-01-10 19:01:00,
2013-01-10 13:06:00,39.2,30.6,29.84,SSE,165,0.0,3.0,71,0.00,,,0.00,WeatherCatV1.11B39,2013-01-10 19:06:00,
2013-01-10 13:11:00,39.2,30.9,29.84,SSE,159,0.0,4.0,72,0.00,,,0.00,WeatherCatV1.11B39,2013-01-10 19:11:00,
2013-01-10 13:16:00,39.2,31.3,29.83,SSW,206,0.0,3.0,73,0.00,,,0.00,WeatherCatV1.11B39,2013-01-10 19:16:00,
2013-01-10 13:21:00,39.2,31.6,29.83,South,173,0.0,5.0,74,0.00,,,0.00,WeatherCatV1.11B39,2013-01-10 19:21:00,
2013-01-10 13:26:00,39.2,32.3,29.83,SSE,150,2.0,11.0,76,0.00,,,0.00,WeatherCatV1.11B39,2013-01-10 19:26:00,
2013-01-10 13:31:00,39.3,33.0,29.83,SSE,149,0.0,3.0,78,0.00,,,0.00,WeatherCatV1.11B39,2013-01-10 19:31:00,
2013-01-10 13:36:00,39.3,33.7,29.83,SSE,148,0.0,3.0,80,0.00,,,0.00,WeatherCatV1.11B39,2013-01-10 19:36:00,
2013-01-10 13:41:00,39.2,34.2,29.83,SE,136,6.0,6.0,82,0.00,,,0.00,WeatherCatV1.11B39,2013-01-10 19:41:00,
2013-01-10 13:46:00,38.9,34.2,29.82,South,173,1.0,4.0,83,0.00,,,0.00,WeatherCatV1.11B39,2013-01-10 19:46:00,
2013-01-10 13:51:00,38.8,34.4,29.82,South,172,1.0,2.0,84,0.00,,,0.00,WeatherCatV1.11B39,2013-01-10 19:51:00,
2013-01-10 13:56:00,38.6,34.5,29.82,SSE,168,3.0,4.0,85,0.00,,,0.00,WeatherCatV1.11B39,2013-01-10 19:56:00,
2013-01-10 14:01:00,38.6,35.1,29.82,SSE,168,0.0,4.0,87,0.00,,,0.00,WeatherCatV1.11B39,2013-01-10 20:01:00,
2013-01-10 14:06:00,38.9,35.7,29.82,SSE,165,1.0,4.0,88,0.00,,,0.01,WeatherCatV1.11B39,2013-01-10 20:06:00,
2013-01-10 14:11:00,39.1,35.9,29.82,SSE,165,0.0,1.0,88,0.00,,,0.01,WeatherCatV1.11B39,2013-01-10 20:11:00,
2013-01-10 14:16:00,38.9,35.7,29.80,SSE,165,0.0,2.0,88,0.00,,,0.01,WeatherCatV1.11B39,2013-01-10 20:16:00,
2013-01-10 14:21:00,38.9,35.9,29.80,SSE,161,0.0,4.0,89,0.00,,,0.01,WeatherCatV1.11B39,2013-01-10 20:21:00,
2013-01-10 14:26:00,38.9,36.2,29.80,SSE,160,1.0,4.0,90,0.00,,,0.01,WeatherCatV1.11B39,2013-01-10 20:26:00,
2013-01-10 14:31:00,38.8,36.1,29.80,SSE,159,0.0,2.0,90,0.00,,,0.01,WeatherCatV1.11B39,2013-01-10 20:31:00,
2013-01-10 14:36:00,38.8,36.1,29.80,SSE,155,0.0,2.0,90,0.00,,,0.01,WeatherCatV1.11B39,2013-01-10 20:36:00,
2013-01-10 14:41:00,38.6,36.2,29.80,SSE,155,2.0,3.0,91,0.00,,,0.01,WeatherCatV1.11B39,2013-01-10 20:41:00,
2013-01-10 14:46:00,38.6,36.2,29.79,SSE,168,3.0,5.0,91,0.00,,,0.01,WeatherCatV1.11B39,2013-01-10 20:46:00,
2013-01-10 14:51:00,38.5,36.1,29.79,SSE,164,0.0,2.0,91,0.00,,,0.01,WeatherCatV1.11B39,2013-01-10 20:51:00,
2013-01-10 14:56:00,38.3,35.9,29.79,SSE,164,0.0,3.0,91,0.00,,,0.01,WeatherCatV1.11B39,2013-01-10 20:56:00,
2013-01-10 15:01:00,38.3,36.2,29.79,SSE,164,1.0,2.0,92,0.00,,,0.01,WeatherCatV1.11B39,2013-01-10 21:01:00,
2013-01-10 15:06:00,38.3,36.2,29.79,SSE,163,0.0,3.0,92,0.00,,,0.01,WeatherCatV1.11B39,2013-01-10 21:06:00,
2013-01-10 15:11:00,38.3,36.2,29.79,SSE,162,1.0,3.0,92,0.00,,,0.01,WeatherCatV1.11B39,2013-01-10 21:11:00,
2013-01-10 15:16:00,38.3,36.2,29.78,SSE,162,0.0,2.0,92,0.00,,,0.01,WeatherCatV1.11B39,2013-01-10 21:16:00,
2013-01-10 15:21:00,38.3,36.5,29.78,SSE,162,0.0,2.0,93,0.00,,,0.01,WeatherCatV1.11B39,2013-01-10 21:21:00,
2013-01-10 15:26:00,38.3,36.5,29.78,SSE,161,1.0,1.0,93,0.00,,,0.01,WeatherCatV1.11B39,2013-01-10 21:26:00,
2013-01-10 15:31:00,38.2,36.4,29.78,SSE,161,0.0,3.0,93,0.00,,,0.01,WeatherCatV1.11B39,2013-01-10 21:31:00,
2013-01-10 15:36:00,38.2,36.4,29.78,SSE,159,3.0,5.0,93,0.00,,,0.01,WeatherCatV1.11B39,2013-01-10 21:36:00,
2013-01-10 15:41:00,38.2,36.4,29.78,SSE,159,0.0,3.0,93,0.00,,,0.01,WeatherCatV1.11B39,2013-01-10 21:41:00,
2013-01-10 15:46:00,38.2,36.4,29.77,SSE,155,3.0,4.0,93,0.00,,,0.01,WeatherCatV1.11B39,2013-01-10 21:46:00,
2013-01-10 15:51:00,38.2,36.6,29.77,SE,129,4.0,4.0,94,0.00,,,0.01,WeatherCatV1.11B39,2013-01-10 21:51:00,
2013-01-10 15:56:00,38.2,36.6,29.77,SSE,157,0.0,3.0,94,0.00,,,0.01,WeatherCatV1.11B39,2013-01-10 21:56:00,
2013-01-10 16:01:00,38.0,36.4,29.77,SSE,148,0.0,4.0,94,0.00,,,0.01,WeatherCatV1.11B39,2013-01-10 22:01:00,
2013-01-10 16:06:00,38.0,36.4,29.77,SE,144,2.0,3.0,94,0.00,,,0.01,WeatherCatV1.11B39,2013-01-10 22:06:00,
2013-01-10 16:11:00,37.9,36.3,29.77,SE,144,0.0,3.0,94,0.00,,,0.01,WeatherCatV1.11B39,2013-01-10 22:11:00,
2013-01-10 16:16:00,37.9,36.3,29.77,SE,144,0.0,2.0,94,0.00,,,0.01,WeatherCatV1.11B39,2013-01-10 22:16:00,
2013-01-10 16:21:00,37.9,36.3,29.77,SE,144,0.0,1.0,94,0.00,,,0.02,WeatherCatV1.11B39,2013-01-10 22:21:00,
2013-01-10 16:26:00,37.9,36.3,29.77,SE,144,0.0,3.0,94,0.00,,,0.02,WeatherCatV1.11B39,2013-01-10 22:26:00,
2013-01-10 16:31:00,37.9,36.3,29.77,SE,144,2.0,2.0,94,0.06,,,0.03,WeatherCatV1.11B39,2013-01-10 22:31:00,
2013-01-10 16:36:00,37.8,36.2,29.77,SE,144,0.0,2.0,94,0.12,,,0.04,WeatherCatV1.11B39,2013-01-10 22:36:00,
2013-01-10 16:41:00,37.8,36.2,29.77,SE,143,0.0,0.0,94,0.06,,,0.04,WeatherCatV1.11B39,2013-01-10 22:41:00,
2013-01-10 16:46:00,37.6,36.0,29.75,SE,133,0.0,4.0,94,0.05,,,0.05,WeatherCatV1.11B39,2013-01-10 22:46:00,
2013-01-10 16:51:00,37.5,35.9,29.75,SE,133,2.0,3.0,94,0.05,,,0.05,WeatherCatV1.11B39,2013-01-10 22:51:00,
2013-01-10 16:56:00,37.5,35.9,29.75,SE,133,0.0,3.0,94,0.04,,,0.05,WeatherCatV1.11B39,2013-01-10 22:56:00,
2013-01-10 17:01:00,37.3,36.0,29.74,SE,133,2.0,4.0,95,0.04,,,0.06,WeatherCatV1.11B39,2013-01-10 23:01:00,
2013-01-10 17:06:00,37.3,36.0,29.74,SE,133,3.0,3.0,95,0.07,,,0.07,WeatherCatV1.11B39,2013-01-10 23:06:00,
2013-01-10 17:11:00,37.3,36.0,29.74,SE,133,3.0,3.0,95,0.07,,,0.07,WeatherCatV1.11B39,2013-01-10 23:11:00,
2013-01-10 17:16:00,37.3,36.0,29.73,SE,133,1.0,2.0,95,0.06,,,0.07,WeatherCatV1.11B39,2013-01-10 23:16:00,
2013-01-10 17:21:00,37.2,35.9,29.73,SE,133,1.0,1.0,95,0.04,,,0.07,WeatherCatV1.11B39,2013-01-10 23:21:00,
2013-01-10 17:26:00,37.2,35.9,29.73,SE,134,0.0,3.0,95,0.00,,,0.07,WeatherCatV1.11B39,2013-01-10 23:26:00,
2013-01-10 17:31:00,37.0,35.7,29.74,SE,134,1.0,2.0,95,0.00,,,0.07,WeatherCatV1.11B39,2013-01-10 23:31:00,
2013-01-10 17:36:00,37.0,35.7,29.74,SE,134,0.0,0.0,95,0.00,,,0.07,WeatherCatV1.11B39,2013-01-10 23:36:00,
2013-01-10 17:41:00,37.0,35.7,29.74,SE,134,0.0,1.0,95,0.00,,,0.07,WeatherCatV1.11B39,2013-01-10 23:41:00,
2013-01-10 17:46:00,37.0,35.7,29.72,SE,134,2.0,2.0,95,0.00,,,0.07,WeatherCatV1.11B39,2013-01-10 23:46:00,
2013-01-10 17:51:00,37.0,35.7,29.72,SE,134,0.0,1.0,95,0.00,,,0.07,WeatherCatV1.11B39,2013-01-10 23:51:00,
2013-01-10 17:56:00,37.0,36.0,29.72,SE,134,0.0,0.0,96,0.00,,,0.07,WeatherCatV1.11B39,2013-01-10 23:56:00,
2013-01-10 18:01:00,36.9,35.9,29.73,SE,134,0.0,1.0,96,0.00,,,0.07,WeatherCatV1.11B39,2013-01-11 00:01:00,
2013-01-10 18:06:00,36.9,35.9,29.73,SE,134,0.0,2.0,96,0.00,,,0.07,WeatherCatV1.11B39,2013-01-11 00:06:00,
2013-01-10 18:11:00,36.9,35.9,29.73,SE,134,0.0,2.0,96,0.00,,,0.07,WeatherCatV1.11B39,2013-01-11 00:11:00,
2013-01-10 18:16:00,36.9,35.9,29.73,SE,134,0.0,0.0,96,0.00,,,0.07,WeatherCatV1.11B39,2013-01-11 00:16:00,
2013-01-10 18:21:00,36.9,35.9,29.73,SE,134,0.0,1.0,96,0.00,,,0.07,WeatherCatV1.11B39,2013-01-11 00:21:00,
2013-01-10 18:26:00,36.9,35.9,29.73,SE,133,0.0,2.0,96,0.00,,,0.07,WeatherCatV1.11B39,2013-01-11 00:26:00,
2013-01-10 18:31:00,36.9,35.9,29.70,SE,133,0.0,0.0,96,0.00,,,0.07,WeatherCatV1.11B39,2013-01-11 00:31:00,
2013-01-10 18:36:00,36.8,35.8,29.70,SE,133,0.0,2.0,96,0.00,,,0.07,WeatherCatV1.11B39,2013-01-11 00:36:00,
2013-01-10 18:41:00,36.8,35.8,29.70,SE,133,0.0,1.0,96,0.00,,,0.07,WeatherCatV1.11B39,2013-01-11 00:41:00,
2013-01-10 18:46:00,36.8,35.8,29.69,SE,133,0.0,2.0,96,0.00,,,0.07,WeatherCatV1.11B39,2013-01-11 00:46:00,
2013-01-10 18:51:00,36.8,35.8,29.69,SE,133,2.0,2.0,96,0.00,,,0.07,WeatherCatV1.11B39,2013-01-11 00:51:00,
2013-01-10 18:56:00,36.8,35.8,29.69,SE,133,0.0,2.0,96,0.00,,,0.07,WeatherCatV1.11B39,2013-01-11 00:56:00,
2013-01-10 19:01:00,36.8,35.8,29.69,SE,133,0.0,1.0,96,0.00,,,0.07,WeatherCatV1.11B39,2013-01-11 01:01:00,
2013-01-10 19:06:00,36.8,35.8,29.69,SE,133,0.0,0.0,96,0.00,,,0.07,WeatherCatV1.11B39,2013-01-11 01:06:00,
2013-01-10 19:11:00,36.8,35.8,29.69,SE,133,0.0,1.0,96,0.00,,,0.07,WeatherCatV1.11B39,2013-01-11 01:11:00,
2013-01-10 19:16:00,36.8,35.8,29.68,SE,133,2.0,2.0,96,0.00,,,0.07,WeatherCatV1.11B39,2013-01-11 01:16:00,
2013-01-10 19:21:00,36.8,35.8,29.68,SE,133,0.0,4.0,96,0.00,,,0.07,WeatherCatV1.11B39,2013-01-11 01:21:00,
2013-01-10 19:26:00,36.8,35.8,29.68,SE,133,0.0,3.0,96,0.00,,,0.07,WeatherCatV1.11B39,2013-01-11 01:26:00,
2013-01-10 19:31:00,36.6,35.6,29.67,SE,133,0.0,2.0,96,0.00,,,0.07,WeatherCatV1.11B39,2013-01-11 01:31:00,
2013-01-10 19:36:00,36.6,35.6,29.67,SE,133,0.0,2.0,96,0.00,,,0.07,WeatherCatV1.11B39,2013-01-11 01:36:00,
2013-01-10 19:41:00,36.6,35.8,29.67,SE,133,0.0,1.0,97,0.00,,,0.07,WeatherCatV1.11B39,2013-01-11 01:41:00,
2013-01-10 19:46:00,36.6,35.8,29.67,SE,133,0.0,2.0,97,0.00,,,0.07,WeatherCatV1.11B39,2013-01-11 01:46:00,
2013-01-10 19:51:00,36.6,35.8,29.67,SE,133,0.0,2.0,97,0.00,,,0.07,WeatherCatV1.11B39,2013-01-11 01:51:00,
2013-01-10 19:56:00,36.6,35.8,29.67,SE,133,0.0,3.0,97,0.00,,,0.07,WeatherCatV1.11B39,2013-01-11 01:56:00,
2013-01-10 20:01:00,36.8,36.0,29.68,South,173,0.0,2.0,97,0.00,,,0.07,WeatherCatV1.11B39,2013-01-11 02:01:00,
2013-01-10 20:06:00,36.8,36.0,29.68,South,172,0.0,2.0,97,0.00,,,0.07,WeatherCatV1.11B39,2013-01-11 02:06:00,
2013-01-10 20:11:00,36.9,36.1,29.68,South,172,0.0,0.0,97,0.00,,,0.07,WeatherCatV1.11B39,2013-01-11 02:11:00,
2013-01-10 20:16:00,36.9,36.1,29.67,South,172,0.0,3.0,97,0.00,,,0.07,WeatherCatV1.11B39,2013-01-11 02:16:00,
2013-01-10 20:21:00,36.9,36.1,29.67,South,172,0.0,0.0,97,0.00,,,0.07,WeatherCatV1.11B39,2013-01-11 02:21:00,
2013-01-10 20:26:00,36.9,36.1,29.67,South,169,0.0,1.0,97,0.00,,,0.07,WeatherCatV1.11B39,2013-01-11 02:26:00,
2013-01-10 20:31:00,37.0,36.2,29.67,South,169,0.0,4.0,97,0.00,,,0.07,WeatherCatV1.11B39,2013-01-11 02:31:00,
2013-01-10 20:36:00,37.2,36.4,29.67,South,170,0.0,2.0,97,0.00,,,0.07,WeatherCatV1.11B39,2013-01-11 02:36:00,
2013-01-10 20:41:00,37.3,36.5,29.67,South,170,1.0,3.0,97,0.00,,,0.07,WeatherCatV1.11B39,2013-01-11 02:41:00,
2013-01-10 20:46:00,37.3,36.5,29.68,South,170,2.0,3.0,97,0.00,,,0.07,WeatherCatV1.11B39,2013-01-11 02:46:00,
2013-01-10 20:51:00,37.5,36.7,29.68,SSE,157,3.0,4.0,97,0.00,,,0.07,WeatherCatV1.11B39,2013-01-11 02:51:00,
2013-01-10 20:56:00,37.5,36.7,29.68,SSE,158,3.0,4.0,97,0.00,,,0.07,WeatherCatV1.11B39,2013-01-11 02:56:00,
2013-01-10 21:01:00,37.5,36.7,29.67,SSE,167,1.0,3.0,97,0.00,,,0.07,WeatherCatV1.11B39,2013-01-11 03:01:00,
2013-01-10 21:06:00,37.5,36.7,29.67,SSE,167,3.0,3.0,97,0.00,,,0.07,WeatherCatV1.11B39,2013-01-11 03:06:00,
2013-01-10 21:11:00,37.5,36.7,29.67,SSE,167,2.0,4.0,97,0.00,,,0.07,WeatherCatV1.11B39,2013-01-11 03:11:00,
2013-01-10 21:16:00,37.3,36.5,29.66,SSE,167,1.0,3.0,97,0.00,,,0.07,WeatherCatV1.11B39,2013-01-11 03:16:00,
2013-01-10 21:21:00,37.3,36.5,29.66,SSE,167,0.0,0.0,97,0.00,,,0.07,WeatherCatV1.11B39,2013-01-11 03:21:00,
2013-01-10 21:26:00,37.3,36.5,29.66,SSE,167,0.0,0.0,97,0.00,,,0.07,WeatherCatV1.11B39,2013-01-11 03:26:00,
2013-01-10 21:31:00,37.2,36.4,29.65,SSE,167,0.0,0.0,97,0.00,,,0.07,WeatherCatV1.11B39,2013-01-11 03:31:00,
2013-01-10 21:36:00,37.2,36.4,29.65,SSE,167,0.0,1.0,97,0.00,,,0.07,WeatherCatV1.11B39,2013-01-11 03:36:00,
2013-01-10 21:41:00,37.2,36.4,29.65,SSE,167,0.0,0.0,97,0.00,,,0.07,WeatherCatV1.11B39,2013-01-11 03:41:00,
2013-01-10 21:46:00,37.2,36.4,29.65,SSE,167,0.0,0.0,97,0.00,,,0.07,WeatherCatV1.11B39,2013-01-11 03:46:00,
2013-01-10 21:51:00,37.2,36.4,29.65,SSE,167,0.0,0.0,97,0.00,,,0.07,WeatherCatV1.11B39,2013-01-11 03:51:00,
2013-01-10 21:56:00,37.2,36.7,29.65,SSE,167,0.0,0.0,98,0.00,,,0.07,WeatherCatV1.11B39,2013-01-11 03:56:00,
2013-01-10 22:01:00,37.2,36.7,29.64,SSE,167,0.0,1.0,98,0.00,,,0.07,WeatherCatV1.11B39,2013-01-11 04:01:00,
2013-01-10 22:06:00,37.2,36.7,29.64,SSE,167,0.0,0.0,98,0.00,,,0.07,WeatherCatV1.11B39,2013-01-11 04:06:00,
2013-01-10 22:11:00,37.2,36.7,29.64,SSE,167,0.0,0.0,98,0.00,,,0.07,WeatherCatV1.11B39,2013-01-11 04:11:00,
2013-01-10 22:16:00,37.2,36.7,29.63,SSE,167,0.0,0.0,98,0.00,,,0.07,WeatherCatV1.11B39,2013-01-11 04:16:00,
2013-01-10 22:21:00,37.2,36.7,29.63,SSE,167,0.0,0.0,98,0.00,,,0.07,WeatherCatV1.11B39,2013-01-11 04:21:00,
2013-01-10 22:26:00,37.0,36.5,29.63,SSE,167,0.0,0.0,98,0.00,,,0.07,WeatherCatV1.11B39,2013-01-11 04:26:00,
2013-01-10 22:31:00,37.0,36.5,29.62,SSE,167,0.0,0.0,98,0.00,,,0.07,WeatherCatV1.11B39,2013-01-11 04:31:00,
2013-01-10 22:36:00,37.0,36.5,29.62,SSE,167,0.0,0.0,98,0.00,,,0.07,WeatherCatV1.11B39,2013-01-11 04:36:00,
2013-01-10 22:41:00,36.9,36.4,29.62,SSE,167,0.0,0.0,98,0.00,,,0.07,WeatherCatV1.11B39,2013-01-11 04:41:00,
2013-01-10 22:46:00,36.9,36.4,29.62,SSE,167,0.0,0.0,98,0.00,,,0.07,WeatherCatV1.11B39,2013-01-11 04:46:00,
2013-01-10 22:51:00,36.9,36.4,29.62,SSE,167,0.0,0.0,98,0.00,,,0.07,WeatherCatV1.11B39,2013-01-11 04:51:00,
2013-01-10 22:56:00,36.8,36.3,29.62,SSE,167,0.0,0.0,98,0.00,,,0.07,WeatherCatV1.11B39,2013-01-11 04:56:00,
2013-01-10 23:01:00,36.8,36.3,29.62,SSE,167,0.0,0.0,98,0.00,,,0.07,WeatherCatV1.11B39,2013-01-11 05:01:00,
2013-01-10 23:06:00,36.8,36.3,29.62,SSE,167,0.0,0.0,98,0.00,,,0.07,WeatherCatV1.11B39,2013-01-11 05:06:00,
2013-01-10 23:11:00,36.8,36.3,29.62,SSE,167,0.0,3.0,98,0.00,,,0.07,WeatherCatV1.11B39,2013-01-11 05:11:00,
2013-01-10 23:16:00,36.8,36.3,29.62,SSE,166,0.0,1.0,98,0.00,,,0.07,WeatherCatV1.11B39,2013-01-11 05:16:00,
2013-01-10 23:21:00,36.8,36.3,29.62,SSE,166,0.0,0.0,98,0.00,,,0.07,WeatherCatV1.11B39,2013-01-11 05:21:00,
2013-01-10 23:26:00,36.8,36.3,29.62,SSE,166,0.0,0.0,98,0.00,,,0.07,WeatherCatV1.11B39,2013-01-11 05:26:00,
2013-01-10 23:31:00,36.8,36.3,29.62,SSE,166,0.0,0.0,98,0.00,,,0.07,WeatherCatV1.11B39,2013-01-11 05:31:00,
2013-01-10 23:36:00,36.8,36.3,29.62,SSE,166,0.0,0.0,98,0.00,,,0.07,WeatherCatV1.11B39,2013-01-11 05:36:00,
2013-01-10 23:41:00,36.8,36.3,29.62,SSE,166,0.0,1.0,98,0.00,,,0.07,WeatherCatV1.11B39,2013-01-11 05:41:00,
2013-01-10 23:46:00,36.8,36.3,29.61,SSE,166,0.0,0.0,98,0.00,,,0.07,WeatherCatV1.11B39,2013-01-11 05:46:00,
2013-01-10 23:51:00,36.8,36.3,29.61,SSE,166,0.0,3.0,98,0.00,,,0.07,WeatherCatV1.11B39,2013-01-11 05:51:00,
2013-01-10 23:56:00,36.9,36.4,29.61,SSE,167,0.0,6.0,98,0.00,,,0.07,WeatherCatV1.11B39,2013-01-11 05:56:00,